THORAD AGENA D DEB, 4856

Orbit data source: Space-Track

THORAD AGENA D DEB, 4856 is space debris in SSO originally from a launch on Wed, 08 Apr 1970 UTC launched from the Air Force Western Test Range (AFWTR). Debris objects in space refer to the collection of defunct objects orbiting the Earth. Examples of debris include non-operational satellites, rocket bodies, and fragments generated from explosions, collisions, or faulty payload assembly.

Loading next visibility...
Identifier
4856, 1970-025EL
Orbit
SSO
Country
Flag of USUS
Related business
Manufacturer
Unknown
Mission
Spacecraft
Bus & Motor
Unknown
Mass
Unknown
Launch date (UTC)
1970-04-08 (56 years ago)
Launch vehicle
Unknown
Launch site
Air Force Western Test Range (AFWTR)
Object type
Payload
Rocket body
Debris
Shape & HBR
Unknown shape, 0.1 m
Radar Cross Section
Small (<0.1 m²)

Expand to show TLE details & history
Last TLE update: 7 hours ago

TLE from 7 hours ago
0 THORAD AGENA D DEB
1 04856U 70025EL  25353.22888571  .00000468  00000-0  26138-3 0  9997
2 04856  99.7241  97.5639 0153576  95.8345 266.0353 14.10308377845047
Epoch: 2025-12-19T05:29Z
TLE epoch observation values (Epoch: 2025-12-19T05:29:35.725Z)
Latitude
0.00003°
Longitude
-72.908°
Altitude
870.566 km
Speed
7.412 km/s
True Right ascension
06h 30m 15s
True Declination
0° 00' 00"
Sunlit
Object was in full shadow at epoch
Visualization orbit readout
Latitude
Unknown
Longitude
Unknown
Altitude
Unknown
Speed
Unknown
Apparent Right ascension
Unknown
Apparent Declination
Unknown
Sunlit
N/A
Visualization observer readout
Local Sidereal Time
10:58:19
Azimuth
Unknown
Elevation
Unknown
Doppler factor
Unknown
Orbital elements
Apogee altitude
966.63 km
Perigee altitude
744.446 km
Semi-major axis
7,233.675 km
Eccentricity
0.01536
Inclination
99.7241°
RAAN
97.5639°
Arg. of periapsis
95.8345°
True anomaly
264.28226°
Mean anomaly
266.0353°
Eccentric anomaly
265.15851°
Mean motion
3.52781 °/min
Orbital period
102.05 mins
BSTAR
0.00026138

Documentation

Showing up to 5 results
|